sat.trackr.live / text

‹ back to catalog

STARLINK-34285

NORAD 65101 · 2025-167Z

PAYLOAD ACTIVE UNKNOWN

§ Identity

Operator
Country
US
Launch date
2025-08-04
Launch site
AFETR
Launch vehicle
Mass (kg)
RCS (m²)

Purposes: comms

External: N2YO · Heavens-Above · Gunter

§ Orbital elements

Epoch: 2026-05-25T02:14:36.303936Z

Period
93.85 min
Inclination
53.1600°
Eccentricity
0.0001179
Mean motion
15.34393925 rev/d
Perigee alt
461.9 km
Apogee alt
463.5 km
Semi-major
6,840.9 km
B*
6.2818e-4
RAAN
31.3379°
Arg perigee
89.3678°
Mean anomaly
270.7460°
Rev number
4,518

§ Raw data

STARLINK-342851 65101U 25167Z   26145.09347574  .00020903  00000+0  62818-3 0  99922 65101  53.1600  31.3379 0001179  89.3678 270.7460 15.34393925 45183

JSON: /api/v1/satellites/65101 · /tle

For live sub-satellite position, see the globe view (requires WebGL).

§ Visibility from observer

Set your observer location to see the next 7 days of passes ≥ 10°. The values pass through the URL so the page stays shareable.

No JS? Fill the form by hand. The geolocation button needs JavaScript.